sat.trackr.live / text

‹ back to catalog

EUTELSAT HOTBIRD 13F

NORAD 54048 · 2022-134A

PAYLOAD ACTIVE UNKNOWN

§ Identity

Operator
Country
EUTE
Launch date
2022-10-15
Launch site
AFETR
Launch vehicle
Mass (kg)
RCS (m²)

Purposes: comms

External: N2YO · Heavens-Above · Gunter

§ Orbital elements

Epoch: 2026-09-20T03:17:50.253216Z

Period
1,436.08 min
Inclination
0.0634°
Eccentricity
0.0001917
Mean motion
1.00273302 rev/d
Perigee alt
35,778.1 km
Apogee alt
35,794.3 km
Semi-major
42,164.3 km
B*
0.0000e+0
RAAN
288.4007°
Arg perigee
79.4079°
Mean anomaly
53.6971°
Rev number
1,432

§ Raw data

EUTELSAT HOTBIRD 13F1 54048U 22134A   26263.13738719  .00000083  00000+0  00000+0 0  99902 54048   0.0634 288.4007 0001917  79.4079  53.6971  1.00273302 14328

JSON: /api/v1/satellites/54048 · /tle

For live sub-satellite position, see the globe view (requires WebGL).

§ Visibility from observer

Set your observer location to see the next 7 days of passes ≥ 10°. The values pass through the URL so the page stays shareable.

No JS? Fill the form by hand. The geolocation button needs JavaScript.